Tracking 30298 objects as of 27-Apr-2025
HD Live streaming from Space Station
objects crossing your sky now

ARIANE 1 DEB

Track ARIANE 1 DEB now!
10-day predictions


NORAD ID: 40780
Int'l Code: 1979-104AH
Perigee: 557.6 km
Apogee: 20,788.1 km
Inclination: 19.1 °
Period: 369.1 minutes
Semi major axis: 17043 km
RCS: Unknown
Launch date: December 24, 1979
Source: European Space Agency (ESA)
Launch site: FRENCH GUIANA (FRGUI)

Note: This is SATELLITE DEBRIS
Your satellite tracking list
Your tracking list is empty




NASA's NSSDC Master Catalog

Two Line Element Set (TLE):
1 40780U 79104AH  25110.57216836  .00000579  00000-0  22035-2 0  9992
2 40780  19.1059 208.8196 5934816 227.8202  63.8194  3.90167209314285
Source of the keplerian elements: AFSPC